Regional Weather Roundup
Issued by NWS

Home | Current Version | Previous Version | Graphics & Text | Print | Product List | Glossary On
Versions: 1 2 3 4 5 6 7 8 9 10 11 12 13 14 15 16 17 18 19 20 21 22 23 24 25 26 27 28 29 30 31 32 33 34 35 36 37 38 39 40 41 42 43 44 45 46 47 48 49 50
000
ASUS43 KIND 231409
RWRIN

WEATHER ROUNDUP FOR INDIANA
NATIONAL WEATHER SERVICE INDIANAPOLIS IN
1000 AM EDT WED APR 23 2014

NOTE: "FAIR" INDICATES FEW OR NO CLOUDS BELOW 12,000 FEET WITH NO
SIGNIFICANT WEATHER AND/OR OBSTRUCTIONS TO VISIBILITY.

* - STATION DOES NOT REPORT WEATHER SUCH AS PRECIPITATION OR FOG.

+ - STATION NOT QUALITY CONTROLLED BY THE NATIONAL WEATHER SERVICE.
    USE DATA WITH CAUTION...ESPECIALLY DEWPOINT AND RELATIVE
    HUMIDITY OBSERVATIONS.

INZ001>003-010>013-019-020-231500-
NORTHWEST INDIANA

CITY           SKY/WX    TMP DP  RH WIND       PRES   REMARKS
GARY /AIRPORT/ MOSUNNY   41  30  65 NE14      30.18S
LA PORTE +     SUNNY     40  29  65 N7        30.15S
MICHIGAN CITY+ MOSUNNY   39  30  70 N10G16    30.17S
MONTICELLO +   SUNNY     39  29  67 NE9       30.14S
RENSSELAER +   SUNNY     41  32  70 N12       30.16S
VALPARAISO     SUNNY     41  28  60 N9        30.16S

$$

LMZ046-743>745-231500-
SOUTHERN LAKE MICHIGAN

STATION/POSITION TIME  TEMP WIND        PRES
                       AIR  DIR/SP/G
                 (UTC) (F)  (DEG/KT/KT) (MB)
MICHIGAN CITY    1400   37   10/ 14/ 17   N/A

$$

INZ004-005-014>016-021>024-231500-
NORTH CENTRAL INDIANA

CITY           SKY/WX    TMP DP  RH WIND       PRES   REMARKS
ELKHART        SUNNY     39  27  60 N7        30.14R
GOSHEN         SUNNY     41  29  62 NE10      30.12S
LOGANSPORT +   SUNNY     41  28  60 N8        30.14F
PERU/GRISSOM   SUNNY     41  33  73 N7        30.13R
ROCHESTER +    SUNNY     43  30  61 NE7       30.14R
SOUTH BEND     SUNNY     42  29  59 N12       30.15R
WARSAW +       SUNNY     39  30  70 N7        30.12S

$$

INZ006>009-017-018-025>027-231500-
NORTHEAST INDIANA

CITY           SKY/WX    TMP DP  RH WIND       PRES   REMARKS
ANGOLA *+      SUNNY     37  28  70 N8        30.10S
AUBURN +       MOSUNNY   41  30  65 N8        30.11S
FORT WAYNE     MOSUNNY   42  29  59 N10       30.11S

$$

INZ028-029-035-036-043>045-051>053-231500-
WEST CENTRAL INDIANA

CITY           SKY/WX    TMP DP  RH WIND       PRES   REMARKS
GREENCASTLE +  SUNNY     43  30  61 N10       30.14R
LAFAYETTE      SUNNY     41  29  62 NE9       30.15R
TERRE HAUTE    SUNNY     45  29  53 NE8       30.14S

$$

INZ030>032-037>040-046>048-054>057-064-065-231500-
CENTRAL INDIANA

CITY           SKY/WX    TMP DP  RH WIND       PRES   REMARKS
CP ATTERBURY + SUNNY     45  32  61 N8        30.13S
COLUMBUS       SUNNY     45  30  57 N9        30.13R
GREENWOOD *+   SUNNY     43  30  61 NE8       30.13
INDIANAPOLIS   SUNNY     42  28  57 N10       30.12R
-EAGLE CREEK   SUNNY     43  29  57 N9        30.12R
KOKOMO *+        N/A    N/A N/A N/A MISG        N/A
MARION +       SUNNY     39  28  64 N6        30.13R
MT COMFORT *+  SUNNY     43  32  65 N10       30.12R
SHELBYVILLE    SUNNY     45  30  55 N7        30.11S
ZIONSVILLE +   SUNNY     41  29  64 N7        30.13R

$$

INZ033-034-041-042-049-050-058-059-231500-
EAST CENTRAL INDIANA

CITY           SKY/WX    TMP DP  RH WIND       PRES   REMARKS
MUNCIE         SUNNY     41  30  65 VRB5      30.12R

$$

INZ060-061-067>069-081>083-085>088-231500-
SOUTHWEST INDIANA

CITY           SKY/WX    TMP DP  RH WIND       PRES   REMARKS
EVANSVILLE     SUNNY     51  30  44 NE13      30.12F
HUNTINGBURG *+ SUNNY     48  30  49 NE12      30.11F
WASHINGTON +   SUNNY     47  31  54 NE12      30.12F

$$

INZ062-063-066-070>080-084-089>092-231500-
SOUTH CENTRAL AND SOUTHEAST INDIANA

CITY           SKY/WX    TMP DP  RH WIND       PRES   REMARKS
BEDFORD +      SUNNY     46  25  42 NE7       30.13
BLOOMINGTON    SUNNY     46  28  49 N7        30.12S

$$




USA.gov is the U.S. government's official web portal to all federal, state and local government web resources and services.